Location: Kitchener
(43.4500°N, 80.5000°W)
Time: 19:09:46
(UTC-04:00)

ATLAS 5 CENTAUR R/B - Visible Passes

Search period start: 23 July 2016 00:00
Search period end: 02 August 2016 00:00
Orbit: 664 x 997 km, 63.4° (Epoch: 18 July)

Date Brightness Start Highest point End Pass type
(mag) Time Alt. Az. Time Alt. Az. Time Alt. Az.
23 Jul 3.2 22:36:39 10° NW 22:42:22 44° WSW 22:46:55 17° S visible
24 Jul 3.2 22:17:44 10° NW 22:23:30 47° WSW 22:28:52 13° S visible
25 Jul 3.1 21:58:50 10° NW 22:04:38 49° WSW 22:10:47 10° SSE visible
26 Jul 3.1 21:39:56 10° NW 21:45:46 52° WSW 21:51:58 10° SSE visible
27 Jul 3.1 21:21:01 10° NW 21:26:53 55° WSW 21:33:08 10° SSE visible
30 Jul 5.0 22:12:40 10° W 22:14:06 11° WSW 22:15:33 10° WSW visible
31 Jul 5.0 21:53:13 10° W 21:55:16 12° WSW 21:57:21 10° SW visible
01 Aug 5.0 21:33:56 10° W 21:36:26 13° WSW 21:38:58 10° SW visible
